Tracking 31027 objects as of 19-Jul-2025
HD Live streaming from Space Station
objects crossing your sky now

CZ-4 R/B

Track CZ-4 R/B now!
10-day predictions


NORAD ID: 19468
Int'l Code: 1988-080B
Perigee: 835.8 km
Apogee: 940.2 km
Inclination: 99.0 °
Period: 102.6 minutes
Semi major axis: 7259 km
RCS: 9.5667 m2 (large)
Launch date: September 6, 1988
Source: People's Republic of China (PRC)
Launch site: Taiyaun Space Center, China (TSC)

Note: This is a ROCKET BODY
Your satellite tracking list
Your tracking list is empty




NASA's NSSDC Master Catalog

Two Line Element Set (TLE):
1 19468U 88080B   25199.88323653  .00000347  00000-0  24283-3 0  9992
2 19468  99.0095 247.4544 0071953 137.9460  35.7409 14.03738398887420
Source of the keplerian elements: AFSPC